,,PressureMeas_1m,,PRMeasQMR101_1,,RHStat155_1m_1,,SRMeasQMS101R_1m,,TAStat155_1m_1,,GenWind_1,,GenWind_1,
2018-10-25, 00:00:06,VALID,919.745,VALID,0.0,VALID,98.24,VALID,-0.006,VALID,20.087,VALID,138.0,VALID,0.0,
2018-10-25, 00:01:06,VALID,919.753,VALID,0.0,VALID,98.282,VALID,-0.0,VALID,20.069,VALID,127.0,VALID,0.0,
2018-10-25, 00:02:06,VALID,919.742,VALID,0.0,VALID,98.297,VALID,-0.006,VALID,20.058,VALID,126.0,VALID,0.0,
2018-10-25, 00:03:06,VALID,919.73,VALID,0.0,VALID,98.358,VALID,-0.009,VALID,20.05,VALID,129.0,VALID,0.0,
2018-10-25, 00:04:06,VALID,919.707,VALID,0.0,VALID,98.351,VALID,-0.011,VALID,20.038,VALID,100.0,VALID,0.0,
2018-10-25, 00:05:06,VALID,919.695,VALID,0.0,VALID,98.367,VALID,-0.004,VALID,20.036,VALID,94.0,VALID,0.0,
2018-10-25, 00:06:06,VALID,919.674,VALID,0.0,VALID,98.268,VALID,-0.011,VALID,20.0,VALID,81.0,VALID,0.0,
2018-10-25, 00:07:06,VALID,919.653,VALID,0.0,VALID,98.199,VALID,0.004,VALID,19.977,VALID,73.0,VALID,0.0,
2018-10-25, 00:08:06,VALID,919.638,VALID,0.0,VALID,98.103,VALID,0.001,VALID,19.96,VALID,73.0,VALID,0.0,
2018-10-25, 00:09:06,VALID,919.61,VALID,0.0,VALID,98.005,VALID,0.003,VALID,19.937,VALID,73.0,VALID,0.0,
2018-10-25, 00:10:06,VALID,919.605,VALID,0.0,VALID,97.966,VALID,0.007,VALID,19.927,VALID,73.0,VALID,0.0,
2018-10-25, 00:11:06,VALID,919.555,VALID,0.0,VALID,97.923,VALID,-0.004,VALID,19.916,VALID,73.0,VALID,0.0,
2018-10-25, 00:12:06,VALID,919.545,VALID,0.0,VALID,97.918,VALID,0.006,VALID,19.914,VALID,73.0,VALID,0.0,
2018-10-25, 00:13:06,VALID,919.532,VALID,0.0,VALID,97.955,VALID,-0.0,VALID,19.919,VALID,77.0,VALID,0.0,
2018-10-25, 00:14:06,VALID,919.509,VALID,0.0,VALID,97.96,VALID,0.016,VALID,19.924,VALID,78.0,VALID,0.0,
2018-10-25, 00:15:06,VALID,919.494,VALID,0.0,VALID,98.005,VALID,0.016,VALID,19.928,VALID,78.0,VALID,0.0,
2018-10-25, 00:16:06,VALID,919.482,VALID,0.0,VALID,97.968,VALID,-0.005,VALID,19.921,VALID,76.0,VALID,0.0,
2018-10-25, 00:17:06,VALID,919.459,VALID,0.0,VALID,97.971,VALID,-0.012,VALID,19.923,VALID,80.0,VALID,0.0,
2018-10-25, 00:18:06,VALID,919.463,VALID,0.0,VALID,97.95,VALID,-0.015,VALID,19.91,VALID,87.0,VALID,0.0,
2018-10-25, 00:19:06,VALID,919.47,VALID,0.0,VALID,97.913,VALID,-0.006,VALID,19.897,VALID,99.0,VALID,0.0,
2018-10-25, 00:20:06,VALID,919.451,VALID,0.0,VALID,97.928,VALID,0.002,VALID,19.885,VALID,108.0,VALID,0.0,
2018-10-25, 00:21:06,VALID,919.45,VALID,0.0,VALID,97.956,VALID,-0.003,VALID,19.879,VALID,110.0,VALID,0.0,
2018-10-25, 00:22:06,VALID,919.453,VALID,0.0,VALID,97.998,VALID,-0.002,VALID,19.895,VALID,119.0,VALID,0.0,
2018-10-25, 00:23:06,VALID,919.454,VALID,0.0,VALID,98.117,VALID,-0.004,VALID,19.941,VALID,125.0,VALID,0.0,
2018-10-25, 00:24:06,VALID,919.436,VALID,0.0,VALID,98.094,VALID,0.013,VALID,19.93,VALID,113.0,VALID,0.0,
2018-10-25, 00:25:06,VALID,919.414,VALID,0.0,VALID,98.057,VALID,0.01,VALID,19.917,VALID,117.0,VALID,0.0,
2018-10-25, 00:26:06,VALID,919.392,VALID,0.0,VALID,98.068,VALID,-0.007,VALID,19.922,VALID,127.0,VALID,0.0,
2018-10-25, 00:27:06,VALID,919.37,VALID,0.0,VALID,98.076,VALID,0.016,VALID,19.913,VALID,116.0,VALID,0.0,
2018-10-25, 00:28:06,VALID,919.334,VALID,0.0,VALID,98.092,VALID,0.013,VALID,19.897,VALID,127.0,VALID,0.0,
2018-10-25, 00:29:06,VALID,919.323,VALID,0.0,VALID,98.096,VALID,-0.003,VALID,19.901,VALID,135.0,VALID,0.0,
2018-10-25, 00:30:06,VALID,919.296,VALID,0.0,VALID,98.063,VALID,0.013,VALID,19.905,VALID,134.0,VALID,0.0,
2018-10-25, 00:31:06,VALID,919.276,VALID,0.0,VALID,98.014,VALID,0.015,VALID,19.913,VALID,134.0,VALID,0.0,
2018-10-25, 00:32:06,VALID,919.258,VALID,0.0,VALID,97.96,VALID,0.013,VALID,19.899,VALID,125.0,VALID,0.0,
2018-10-25, 00:33:06,VALID,919.272,VALID,0.0,VALID,97.91,VALID,0.027,VALID,19.88,VALID,128.0,VALID,0.0,
2018-10-25, 00:34:06,VALID,919.252,VALID,0.0,VALID,97.912,VALID,0.024,VALID,19.878,VALID,128.0,VALID,0.0,
2018-10-25, 00:35:06,VALID,919.255,VALID,0.0,VALID,97.867,VALID,0.021,VALID,19.878,VALID,132.0,VALID,0.0,
2018-10-25, 00:36:06,VALID,919.249,VALID,0.0,VALID,97.896,VALID,0.029,VALID,19.875,VALID,139.0,VALID,0.0,
2018-10-25, 00:37:06,VALID,919.234,VALID,0.0,VALID,97.9,VALID,0.016,VALID,19.884,VALID,127.0,VALID,0.0,
2018-10-25, 00:38:06,VALID,919.218,VALID,0.0,VALID,97.844,VALID,0.013,VALID,19.885,VALID,133.0,VALID,0.0,
2018-10-25, 00:39:06,VALID,919.199,VALID,0.0,VALID,97.864,VALID,-0.024,VALID,19.899,VALID,124.0,VALID,0.0,
2018-10-25, 00:40:06,VALID,919.172,VALID,0.0,VALID,97.871,VALID,-0.023,VALID,19.908,VALID,129.0,VALID,0.0,
2018-10-25, 00:41:06,VALID,919.152,VALID,0.0,VALID,97.8,VALID,-0.027,VALID,19.9,VALID,171.0,VALID,0.0,
2018-10-25, 00:42:06,VALID,919.14,VALID,0.0,VALID,97.774,VALID,-0.018,VALID,19.905,VALID,144.0,VALID,0.0,
2018-10-25, 00:43:06,VALID,919.122,VALID,0.0,VALID,97.737,VALID,-0.015,VALID,19.899,VALID,133.0,VALID,0.0,
2018-10-25, 00:44:06,VALID,919.097,VALID,0.0,VALID,97.706,VALID,-0.016,VALID,19.895,VALID,144.0,VALID,0.0,
2018-10-25, 00:45:06,VALID,919.086,VALID,0.0,VALID,97.705,VALID,-0.011,VALID,19.906,VALID,146.0,VALID,0.0,
2018-10-25, 00:46:06,VALID,919.053,VALID,0.0,VALID,97.624,VALID,-0.017,VALID,19.897,VALID,177.0,VALID,0.0,
2018-10-25, 00:47:06,VALID,919.03,VALID,0.0,VALID,97.395,VALID,-0.01,VALID,19.881,VALID,179.0,VALID,0.0,
2018-10-25, 00:48:06,VALID,919.013,VALID,0.0,VALID,97.215,VALID,-0.026,VALID,19.902,VALID,148.0,VALID,0.0,
2018-10-25, 00:49:06,VALID,919.005,VALID,0.0,VALID,96.952,VALID,-0.021,VALID,19.903,VALID,124.0,VALID,0.0,
2018-10-25, 00:50:06,VALID,918.96,VALID,0.0,VALID,96.765,VALID,-0.025,VALID,19.897,VALID,125.0,VALID,0.0,
2018-10-25, 00:51:06,VALID,918.967,VALID,0.0,VALID,96.796,VALID,-0.03,VALID,19.911,VALID,141.0,VALID,0.0,
2018-10-25, 00:52:06,VALID,918.946,VALID,0.0,VALID,96.609,VALID,-0.021,VALID,19.887,VALID,135.0,VALID,0.0,
2018-10-25, 00:53:06,VALID,918.92,VALID,0.0,VALID,96.542,VALID,-0.007,VALID,19.879,VALID,138.0,VALID,0.0,
2018-10-25, 00:54:06,VALID,918.915,VALID,0.0,VALID,96.542,VALID,0.007,VALID,19.883,VALID,125.0,VALID,0.0,
2018-10-25, 00:55:06,VALID,918.889,VALID,0.0,VALID,96.481,VALID,-0.001,VALID,19.87,VALID,134.0,VALID,0.0,
2018-10-25, 00:56:06,VALID,918.887,VALID,0.0,VALID,96.552,VALID,-0.006,VALID,19.879,VALID,133.0,VALID,0.0,
2018-10-25, 00:57:06,VALID,918.888,VALID,0.0,VALID,96.449,VALID,0.001,VALID,19.864,VALID,132.0,VALID,0.0,
2018-10-25, 00:58:06,VALID,918.873,VALID,0.0,VALID,96.445,VALID,-0.003,VALID,19.864,VALID,167.0,VALID,0.0,
2018-10-25, 00:59:06,VALID,918.865,VALID,0.0,VALID,96.528,VALID,-0.001,VALID,19.895,VALID,140.0,VALID,0.0,
2018-10-25, 01:00:06,VALID,918.86,VALID,0.0,VALID,96.462,VALID,0.002,VALID,19.912,VALID,153.0,VALID,0.0,
2018-10-25, 01:01:06,VALID,918.858,VALID,0.0,VALID,96.432,VALID,0.004,VALID,19.926,VALID,150.0,VALID,0.0,
2018-10-25, 01:02:06,VALID,918.853,VALID,0.0,VALID,96.458,VALID,0.016,VALID,19.933,VALID,156.0,VALID,0.0,
2018-10-25, 01:03:06,VALID,918.828,VALID,0.0,VALID,96.388,VALID,-0.002,VALID,19.937,VALID,121.0,VALID,0.0,
2018-10-25, 01:04:06,VALID,918.832,VALID,0.0,VALID,96.243,VALID,0.003,VALID,19.943,VALID,130.0,VALID,0.0,
2018-10-25, 01:05:06,VALID,918.808,VALID,0.0,VALID,96.043,VALID,0.003,VALID,19.943,VALID,122.0,VALID,0.0,
2018-10-25, 01:06:06,VALID,918.79,VALID,0.0,VALID,95.897,VALID,0.011,VALID,19.942,VALID,126.0,VALID,0.0,
2018-10-25, 01:07:06,VALID,918.766,VALID,0.0,VALID,95.864,VALID,0.014,VALID,19.935,VALID,124.0,VALID,0.0,
2018-10-25, 01:08:06,VALID,918.751,VALID,0.0,VALID,95.779,VALID,0.01,VALID,19.905,VALID,109.0,VALID,0.0,
2018-10-25, 01:09:06,VALID,918.731,VALID,0.0,VALID,95.833,VALID,0.023,VALID,19.877,VALID,110.0,VALID,0.0,
2018-10-25, 01:10:06,VALID,918.709,VALID,0.0,VALID,95.844,VALID,0.009,VALID,19.842,VALID,104.0,VALID,0.0,
2018-10-25, 01:11:06,VALID,918.663,VALID,0.0,VALID,95.871,VALID,-0.015,VALID,19.811,VALID,105.0,VALID,0.0,
2018-10-25, 01:12:06,VALID,918.642,VALID,0.0,VALID,96.165,VALID,-0.006,VALID,19.839,VALID,110.0,VALID,0.0,
2018-10-25, 01:13:06,VALID,918.618,VALID,0.0,VALID,96.119,VALID,-0.001,VALID,19.863,VALID,105.0,VALID,0.0,
2018-10-25, 01:14:06,VALID,918.591,VALID,0.0,VALID,95.956,VALID,-0.005,VALID,19.865,VALID,97.0,VALID,0.0,
2018-10-25, 01:15:06,VALID,918.573,VALID,0.0,VALID,95.827,VALID,-0.001,VALID,19.851,VALID,87.0,VALID,0.0,
2018-10-25, 01:16:06,VALID,918.539,VALID,0.0,VALID,95.958,VALID,0.016,VALID,19.858,VALID,95.0,VALID,0.0,
2018-10-25, 01:17:06,VALID,918.513,VALID,0.0,VALID,96.044,VALID,-0.001,VALID,19.881,VALID,93.0,VALID,0.0,
2018-10-25, 01:18:06,VALID,918.486,VALID,0.0,VALID,95.841,VALID,-0.006,VALID,19.876,VALID,95.0,VALID,0.0,
2018-10-25, 01:19:06,VALID,918.461,VALID,0.0,VALID,95.819,VALID,-0.001,VALID,19.878,VALID,108.0,VALID,0.0,
2018-10-25, 01:20:06,VALID,918.461,VALID,0.0,VALID,95.96,VALID,0.008,VALID,19.88,VALID,112.0,VALID,0.0,
2018-10-25, 01:21:06,VALID,918.473,VALID,0.0,VALID,96.003,VALID,0.005,VALID,19.872,VALID,112.0,VALID,0.0,
2018-10-25, 01:22:06,VALID,918.45,VALID,0.0,VALID,96.124,VALID,-0.004,VALID,19.875,VALID,116.0,VALID,0.0,
2018-10-25, 01:23:06,VALID,918.436,VALID,0.0,VALID,96.168,VALID,0.001,VALID,19.852,VALID,123.0,VALID,0.0,
2018-10-25, 01:24:06,VALID,918.426,VALID,0.0,VALID,96.219,VALID,-0.001,VALID,19.828,VALID,132.0,VALID,0.0,
2018-10-25, 01:25:06,VALID,918.417,VALID,0.0,VALID,96.335,VALID,0.005,VALID,19.831,VALID,130.0,VALID,0.0,
2018-10-25, 01:26:06,VALID,918.409,VALID,0.0,VALID,96.204,VALID,-0.02,VALID,19.797,VALID,129.0,VALID,0.0,
2018-10-25, 01:27:06,VALID,918.363,VALID,0.0,VALID,96.351,VALID,-0.023,VALID,19.773,VALID,119.0,VALID,0.0,
2018-10-25, 01:28:06,VALID,918.366,VALID,0.0,VALID,96.665,VALID,-0.005,VALID,19.762,VALID,104.0,VALID,0.0,
2018-10-25, 01:29:06,VALID,918.347,VALID,0.0,VALID,96.793,VALID,-0.029,VALID,19.735,VALID,83.0,VALID,0.0,
2018-10-25, 01:30:06,VALID,918.334,VALID,0.0,VALID,96.908,VALID,-0.013,VALID,19.702,VALID,84.0,VALID,0.0,
2018-10-25, 01:31:06,VALID,918.31,VALID,0.0,VALID,96.881,VALID,-0.015,VALID,19.656,VALID,80.0,VALID,0.0,
2018-10-25, 01:32:06,VALID,918.294,VALID,0.0,VALID,97.066,VALID,-0.01,VALID,19.623,VALID,63.0,VALID,0.0,
2018-10-25, 01:33:06,VALID,918.278,VALID,0.0,VALID,97.099,VALID,-0.012,VALID,19.573,VALID,49.0,VALID,0.0,
2018-10-25, 01:34:06,VALID,918.251,VALID,0.0,VALID,97.101,VALID,-0.016,VALID,19.531,VALID,55.0,VALID,0.0,
2018-10-25, 01:35:06,VALID,918.232,VALID,0.0,VALID,97.145,VALID,-0.018,VALID,19.505,VALID,60.0,VALID,0.0,
2018-10-25, 01:36:06,VALID,918.202,VALID,0.0,VALID,97.177,VALID,-0.006,VALID,19.498,VALID,61.0,VALID,0.0,
2018-10-25, 01:37:06,VALID,918.173,VALID,0.0,VALID,97.217,VALID,-0.008,VALID,19.511,VALID,62.0,VALID,0.0,
2018-10-25, 01:38:06,VALID,918.147,VALID,0.0,VALID,97.25,VALID,-0.005,VALID,19.532,VALID,58.0,VALID,0.0,
2018-10-25, 01:39:06,VALID,918.137,VALID,0.0,VALID,97.28,VALID,0.004,VALID,19.566,VALID,47.0,VALID,0.0,
2018-10-25, 01:40:06,VALID,918.118,VALID,0.0,VALID,97.24,VALID,0.013,VALID,19.601,VALID,54.0,VALID,0.0,
2018-10-25, 01:41:06,VALID,918.099,VALID,0.0,VALID,97.084,VALID,0.003,VALID,19.617,VALID,64.0,VALID,0.0,
2018-10-25, 01:42:06,VALID,918.113,VALID,0.0,VALID,96.946,VALID,0.001,VALID,19.615,VALID,69.0,VALID,0.0,
2018-10-25, 01:43:06,VALID,918.103,VALID,0.0,VALID,97.0,VALID,-0.006,VALID,19.643,VALID,59.0,VALID,0.0,
2018-10-25, 01:44:06,VALID,918.09,VALID,0.0,VALID,96.913,VALID,-0.003,VALID,19.649,VALID,66.0,VALID,0.0,
2018-10-25, 01:45:06,VALID,918.065,VALID,0.0,VALID,96.938,VALID,0.002,VALID,19.666,VALID,84.0,VALID,0.0,
2018-10-25, 01:46:06,VALID,918.055,VALID,0.0,VALID,96.843,VALID,0.011,VALID,19.673,VALID,89.0,VALID,0.0,
2018-10-25, 01:47:06,VALID,918.047,VALID,0.0,VALID,96.807,VALID,0.0,VALID,19.683,VALID,98.0,VALID,0.0,
2018-10-25, 01:48:06,VALID,918.024,VALID,0.0,VALID,96.804,VALID,-0.013,VALID,19.704,VALID,110.0,VALID,0.0,
2018-10-25, 01:49:06,VALID,918.009,VALID,0.0,VALID,96.793,VALID,0.005,VALID,19.726,VALID,114.0,VALID,0.0,
2018-10-25, 01:50:06,VALID,917.995,VALID,0.0,VALID,96.812,VALID,-0.007,VALID,19.735,VALID,112.0,VALID,0.0,
2018-10-25, 01:51:06,VALID,917.98,VALID,0.0,VALID,96.827,VALID,0.013,VALID,19.735,VALID,115.0,VALID,0.0,
2018-10-25, 01:52:06,VALID,917.981,VALID,0.0,VALID,96.843,VALID,0.009,VALID,19.719,VALID,119.0,VALID,0.0,
2018-10-25, 01:53:06,VALID,917.957,VALID,0.0,VALID,96.906,VALID,-0.0,VALID,19.72,VALID,119.0,VALID,0.0,
2018-10-25, 01:54:06,VALID,917.942,VALID,0.0,VALID,96.889,VALID,-0.028,VALID,19.709,VALID,114.0,VALID,0.0,
2018-10-25, 01:55:06,VALID,917.958,VALID,0.0,VALID,96.898,VALID,-0.009,VALID,19.714,VALID,116.0,VALID,0.0,
2018-10-25, 01:56:06,VALID,917.933,VALID,0.0,VALID,96.854,VALID,-0.016,VALID,19.728,VALID,114.0,VALID,0.0,
2018-10-25, 01:57:06,VALID,917.95,VALID,0.0,VALID,96.773,VALID,-0.029,VALID,19.738,VALID,113.0,VALID,0.0,
2018-10-25, 01:58:06,VALID,917.956,VALID,0.0,VALID,96.693,VALID,-0.017,VALID,19.758,VALID,109.0,VALID,0.0,
2018-10-25, 01:59:06,VALID,917.957,VALID,0.0,VALID,96.561,VALID,-0.009,VALID,19.79,VALID,108.0,VALID,0.0,
2018-10-25, 02:00:06,VALID,917.953,VALID,0.0,VALID,96.346,VALID,-0.017,VALID,19.812,VALID,101.0,VALID,0.0,
2018-10-25, 02:01:06,VALID,917.941,VALID,0.0,VALID,96.184,VALID,-0.016,VALID,19.828,VALID,100.0,VALID,0.0,
2018-10-25, 02:02:06,VALID,917.939,VALID,0.0,VALID,96.01,VALID,-0.018,VALID,19.839,VALID,106.0,VALID,0.0,
2018-10-25, 02:03:06,VALID,917.933,VALID,0.0,VALID,95.858,VALID,-0.031,VALID,19.884,VALID,109.0,VALID,0.0,
2018-10-25, 02:04:06,VALID,917.93,VALID,0.0,VALID,95.57,VALID,-0.007,VALID,19.926,VALID,113.0,VALID,0.0,
2018-10-25, 02:05:06,VALID,917.933,VALID,0.0,VALID,95.325,VALID,0.001,VALID,19.967,VALID,116.0,VALID,0.0,
2018-10-25, 02:06:06,VALID,917.933,VALID,0.0,VALID,95.09,VALID,-0.011,VALID,19.998,VALID,123.0,VALID,0.0,
2018-10-25, 02:07:06,VALID,917.912,VALID,0.0,VALID,95.046,VALID,-0.019,VALID,20.011,VALID,134.0,VALID,0.0,
2018-10-25, 02:08:06,VALID,917.905,VALID,0.0,VALID,94.994,VALID,-0.018,VALID,20.041,VALID,135.0,VALID,0.0,
2018-10-25, 02:09:06,VALID,917.878,VALID,0.0,VALID,94.878,VALID,-0.002,VALID,20.056,VALID,128.0,VALID,0.0,
2018-10-25, 02:10:06,VALID,917.859,VALID,0.0,VALID,94.83,VALID,0.011,VALID,20.045,VALID,117.0,VALID,0.0,
2018-10-25, 02:11:06,VALID,917.847,VALID,0.0,VALID,94.854,VALID,-0.006,VALID,20.005,VALID,110.0,VALID,0.0,
2018-10-25, 02:12:06,VALID,917.843,VALID,0.0,VALID,94.959,VALID,-0.007,VALID,19.973,VALID,108.0,VALID,0.0,
2018-10-25, 02:13:06,VALID,917.813,VALID,0.0,VALID,95.012,VALID,0.004,VALID,19.954,VALID,105.0,VALID,0.0,
2018-10-25, 02:14:06,VALID,917.787,VALID,0.0,VALID,95.053,VALID,-0.002,VALID,19.948,VALID,97.0,VALID,0.0,
2018-10-25, 02:15:06,VALID,917.782,VALID,0.0,VALID,94.997,VALID,-0.012,VALID,19.984,VALID,97.0,VALID,0.0,
2018-10-25, 02:16:06,VALID,917.758,VALID,0.0,VALID,94.848,VALID,-0.004,VALID,20.045,VALID,93.0,VALID,0.0,
2018-10-25, 02:17:06,VALID,917.731,VALID,0.0,VALID,94.528,VALID,-0.003,VALID,20.094,VALID,95.0,VALID,0.0,
2018-10-25, 02:18:06,VALID,917.722,VALID,0.0,VALID,94.235,VALID,0.003,VALID,20.129,VALID,95.0,VALID,0.0,
2018-10-25, 02:19:06,VALID,917.726,VALID,0.0,VALID,94.125,VALID,-0.009,VALID,20.139,VALID,101.0,VALID,0.0,
2018-10-25, 02:20:06,VALID,917.719,VALID,0.0,VALID,94.147,VALID,0.006,VALID,20.109,VALID,101.0,VALID,0.0,
2018-10-25, 02:21:06,VALID,917.721,VALID,0.0,VALID,94.287,VALID,-0.006,VALID,20.084,VALID,100.0,VALID,0.0,
2018-10-25, 02:22:06,VALID,917.717,VALID,0.0,VALID,94.383,VALID,-0.003,VALID,20.078,VALID,104.0,VALID,0.0,
2018-10-25, 02:23:06,VALID,917.722,VALID,0.0,VALID,94.448,VALID,-0.005,VALID,20.06,VALID,114.0,VALID,0.0,
2018-10-25, 02:24:06,VALID,917.716,VALID,0.0,VALID,94.571,VALID,-0.007,VALID,20.034,VALID,113.0,VALID,0.0,
2018-10-25, 02:25:06,VALID,917.706,VALID,0.0,VALID,94.688,VALID,0.003,VALID,20.034,VALID,108.0,VALID,0.0,
2018-10-25, 02:26:06,VALID,917.689,VALID,0.0,VALID,94.606,VALID,-0.016,VALID,20.014,VALID,112.0,VALID,0.0,
2018-10-25, 02:27:06,VALID,917.679,VALID,0.0,VALID,94.661,VALID,-0.003,VALID,19.984,VALID,118.0,VALID,0.0,
2018-10-25, 02:28:06,VALID,917.669,VALID,0.0,VALID,94.776,VALID,-0.01,VALID,19.946,VALID,122.0,VALID,0.0,
2018-10-25, 02:29:06,VALID,917.679,VALID,0.0,VALID,95.061,VALID,-0.021,VALID,19.932,VALID,120.0,VALID,0.0,
2018-10-25, 02:30:06,VALID,917.654,VALID,0.0,VALID,95.144,VALID,-0.024,VALID,19.915,VALID,122.0,VALID,0.0,
2018-10-25, 02:31:06,VALID,917.633,VALID,0.0,VALID,95.268,VALID,-0.004,VALID,19.906,VALID,118.0,VALID,0.0,
2018-10-25, 02:32:06,VALID,917.635,VALID,0.0,VALID,95.243,VALID,-0.034,VALID,19.921,VALID,112.0,VALID,0.0,
2018-10-25, 02:33:06,VALID,917.604,VALID,0.0,VALID,95.23,VALID,-0.028,VALID,19.933,VALID,124.0,VALID,0.0,
2018-10-25, 02:34:06,VALID,917.597,VALID,0.0,VALID,95.204,VALID,-0.024,VALID,19.925,VALID,116.0,VALID,0.0,
2018-10-25, 02:35:06,VALID,917.591,VALID,0.0,VALID,95.217,VALID,-0.026,VALID,19.902,VALID,106.0,VALID,0.0,
2018-10-25, 02:36:06,VALID,917.597,VALID,0.0,VALID,95.377,VALID,-0.023,VALID,19.889,VALID,106.0,VALID,0.0,
2018-10-25, 02:37:06,VALID,917.606,VALID,0.0,VALID,95.305,VALID,-0.031,VALID,19.866,VALID,106.0,VALID,0.0,
2018-10-25, 02:38:06,VALID,917.604,VALID,0.0,VALID,95.347,VALID,-0.001,VALID,19.859,VALID,112.0,VALID,0.0,
2018-10-25, 02:39:06,VALID,917.598,VALID,0.0,VALID,95.382,VALID,-0.021,VALID,19.846,VALID,104.0,VALID,0.0,
2018-10-25, 02:40:06,VALID,917.602,VALID,0.0,VALID,95.417,VALID,-0.029,VALID,19.831,VALID,107.0,VALID,0.0,
2018-10-25, 02:41:06,VALID,917.6,VALID,0.0,VALID,95.455,VALID,-0.025,VALID,19.835,VALID,102.0,VALID,0.0,
2018-10-25, 02:42:06,VALID,917.603,VALID,0.0,VALID,95.485,VALID,-0.035,VALID,19.866,VALID,106.0,VALID,0.0,
2018-10-25, 02:43:06,VALID,917.622,VALID,0.0,VALID,95.381,VALID,-0.018,VALID,19.881,VALID,106.0,VALID,0.0,
2018-10-25, 02:44:06,VALID,917.593,VALID,0.0,VALID,95.212,VALID,-0.021,VALID,19.865,VALID,106.0,VALID,0.0,
2018-10-25, 02:45:06,VALID,917.604,VALID,0.0,VALID,95.224,VALID,-0.027,VALID,19.842,VALID,116.0,VALID,0.0,
2018-10-25, 02:46:06,VALID,917.596,VALID,0.0,VALID,95.418,VALID,-0.013,VALID,19.84,VALID,118.0,VALID,0.0,
2018-10-25, 02:47:06,VALID,917.576,VALID,0.0,VALID,95.433,VALID,-0.027,VALID,19.855,VALID,114.0,VALID,0.0,
2018-10-25, 02:48:06,VALID,917.576,VALID,0.0,VALID,95.151,VALID,-0.015,VALID,19.856,VALID,116.0,VALID,0.0,
2018-10-25, 02:49:06,VALID,917.559,VALID,0.0,VALID,95.157,VALID,-0.017,VALID,19.842,VALID,122.0,VALID,0.0,
2018-10-25, 02:50:06,VALID,917.529,VALID,0.0,VALID,95.295,VALID,-0.018,VALID,19.837,VALID,122.0,VALID,0.0,
2018-10-25, 02:51:06,VALID,917.523,VALID,0.0,VALID,95.181,VALID,-0.012,VALID,19.829,VALID,123.0,VALID,0.0,
2018-10-25, 02:52:06,VALID,917.521,VALID,0.0,VALID,95.118,VALID,-0.019,VALID,19.808,VALID,104.0,VALID,0.0,
2018-10-25, 02:53:06,VALID,917.494,VALID,0.0,VALID,95.291,VALID,-0.033,VALID,19.796,VALID,97.0,VALID,0.0,
2018-10-25, 02:54:06,VALID,917.51,VALID,0.0,VALID,95.409,VALID,0.007,VALID,19.79,VALID,123.0,VALID,0.0,
2018-10-25, 02:55:06,VALID,917.508,VALID,0.0,VALID,95.339,VALID,0.006,VALID,19.773,VALID,120.0,VALID,0.0,
2018-10-25, 02:56:06,VALID,917.496,VALID,0.0,VALID,95.481,VALID,0.008,VALID,19.765,VALID,136.0,VALID,0.0,
2018-10-25, 02:57:06,VALID,917.495,VALID,0.0,VALID,95.501,VALID,0.015,VALID,19.769,VALID,130.0,VALID,0.0,
2018-10-25, 02:58:06,VALID,917.487,VALID,0.0,VALID,95.461,VALID,0.022,VALID,19.767,VALID,118.0,VALID,0.0,
2018-10-25, 02:59:06,VALID,917.481,VALID,0.0,VALID,95.311,VALID,0.003,VALID,19.751,VALID,103.0,VALID,0.0,
2018-10-25, 03:00:06,VALID,917.48,VALID,0.0,VALID,95.053,VALID,-0.004,VALID,19.701,VALID,93.0,VALID,0.0,
2018-10-25, 03:01:06,VALID,917.483,VALID,0.0,VALID,95.16,VALID,0.006,VALID,19.658,VALID,90.0,VALID,0.0,
2018-10-25, 03:02:06,VALID,917.466,VALID,0.0,VALID,95.556,VALID,0.006,VALID,19.636,VALID,74.0,VALID,0.0,
2018-10-25, 03:03:06,VALID,917.453,VALID,0.0,VALID,95.783,VALID,0.004,VALID,19.627,VALID,74.0,VALID,0.0,
2018-10-25, 03:04:06,VALID,917.458,VALID,0.0,VALID,95.763,VALID,0.02,VALID,19.621,VALID,76.0,VALID,0.0,
2018-10-25, 03:05:06,VALID,917.454,VALID,0.0,VALID,95.648,VALID,0.014,VALID,19.601,VALID,82.0,VALID,0.0,
2018-10-25, 03:06:06,VALID,917.44,VALID,0.0,VALID,95.789,VALID,0.022,VALID,19.593,VALID,93.0,VALID,0.0,
2018-10-25, 03:07:06,VALID,917.444,VALID,0.0,VALID,96.112,VALID,0.005,VALID,19.622,VALID,98.0,VALID,0.0,
2018-10-25, 03:08:06,VALID,917.445,VALID,0.0,VALID,95.932,VALID,0.001,VALID,19.622,VALID,90.0,VALID,0.0,
2018-10-25, 03:09:06,VALID,917.45,VALID,0.0,VALID,95.869,VALID,0.016,VALID,19.583,VALID,93.0,VALID,0.0,
2018-10-25, 03:10:06,VALID,917.432,VALID,0.0,VALID,95.953,VALID,0.008,VALID,19.538,VALID,109.0,VALID,0.0,
2018-10-25, 03:11:06,VALID,917.426,VALID,0.0,VALID,96.17,VALID,0.011,VALID,19.521,VALID,106.0,VALID,0.0,
2018-10-25, 03:12:06,VALID,917.417,VALID,0.0,VALID,96.282,VALID,-0.004,VALID,19.509,VALID,112.0,VALID,0.0,
2018-10-25, 03:13:06,VALID,917.407,VALID,0.0,VALID,96.296,VALID,0.009,VALID,19.491,VALID,101.0,VALID,0.0,
2018-10-25, 03:14:06,VALID,917.415,VALID,0.0,VALID,96.287,VALID,0.013,VALID,19.483,VALID,94.0,VALID,0.0,
2018-10-25, 03:15:06,VALID,917.397,VALID,0.0,VALID,96.383,VALID,0.01,VALID,19.488,VALID,86.0,VALID,0.0,
2018-10-25, 03:16:06,VALID,917.386,VALID,0.0,VALID,96.464,VALID,-0.007,VALID,19.511,VALID,97.0,VALID,0.0,
2018-10-25, 03:17:06,VALID,917.376,VALID,0.0,VALID,96.352,VALID,-0.009,VALID,19.517,VALID,98.0,VALID,0.0,
2018-10-25, 03:18:06,VALID,917.383,VALID,0.0,VALID,96.1,VALID,-0.005,VALID,19.492,VALID,94.0,VALID,0.0,
2018-10-25, 03:19:06,VALID,917.368,VALID,0.0,VALID,96.212,VALID,-0.002,VALID,19.502,VALID,94.0,VALID,0.0,
2018-10-25, 03:20:06,VALID,917.364,VALID,0.0,VALID,96.167,VALID,-0.001,VALID,19.507,VALID,93.0,VALID,0.0,
2018-10-25, 03:21:06,VALID,917.343,VALID,0.0,VALID,96.174,VALID,0.001,VALID,19.524,VALID,89.0,VALID,0.0,
2018-10-25, 03:22:06,VALID,917.348,VALID,0.0,VALID,95.952,VALID,-0.017,VALID,19.5,VALID,100.0,VALID,0.0,
2018-10-25, 03:23:06,VALID,917.338,VALID,0.0,VALID,96.091,VALID,-0.009,VALID,19.485,VALID,88.0,VALID,0.0,
2018-10-25, 03:24:06,VALID,917.349,VALID,0.0,VALID,96.328,VALID,0.007,VALID,19.5,VALID,85.0,VALID,0.0,
2018-10-25, 03:25:06,VALID,917.339,VALID,0.0,VALID,96.364,VALID,0.021,VALID,19.516,VALID,91.0,VALID,0.0,
2018-10-25, 03:26:06,VALID,917.32,VALID,0.0,VALID,96.207,VALID,0.011,VALID,19.499,VALID,97.0,VALID,0.0,
2018-10-25, 03:27:06,VALID,917.323,VALID,0.0,VALID,96.225,VALID,0.01,VALID,19.493,VALID,105.0,VALID,0.0,
2018-10-25, 03:28:06,VALID,917.302,VALID,0.0,VALID,96.107,VALID,0.014,VALID,19.467,VALID,91.0,VALID,0.0,
2018-10-25, 03:29:06,VALID,917.316,VALID,0.0,VALID,96.125,VALID,0.028,VALID,19.465,VALID,82.0,VALID,0.0,
2018-10-25, 03:30:06,VALID,917.312,VALID,0.0,VALID,96.249,VALID,0.042,VALID,19.484,VALID,93.0,VALID,0.0,
2018-10-25, 03:31:06,VALID,917.303,VALID,0.0,VALID,96.315,VALID,0.039,VALID,19.491,VALID,105.0,VALID,0.0,
2018-10-25, 03:32:06,VALID,917.277,VALID,0.0,VALID,96.236,VALID,0.044,VALID,19.487,VALID,106.0,VALID,0.0,
2018-10-25, 03:33:06,VALID,917.27,VALID,0.0,VALID,96.08,VALID,0.034,VALID,19.459,VALID,114.0,VALID,0.0,
2018-10-25, 03:34:06,VALID,917.246,VALID,0.0,VALID,95.998,VALID,0.032,VALID,19.416,VALID,127.0,VALID,0.0,
2018-10-25, 03:35:06,VALID,917.258,VALID,0.0,VALID,96.014,VALID,0.016,VALID,19.386,VALID,137.0,VALID,0.0,
2018-10-25, 03:36:06,VALID,917.251,VALID,0.0,VALID,96.035,VALID,0.004,VALID,19.378,VALID,127.0,VALID,0.0,
2018-10-25, 03:37:06,VALID,917.241,VALID,0.0,VALID,96.072,VALID,0.037,VALID,19.366,VALID,131.0,VALID,0.0,
2018-10-25, 03:38:06,VALID,917.253,VALID,0.0,VALID,95.981,VALID,0.041,VALID,19.337,VALID,113.0,VALID,0.0,
2018-10-25, 03:39:06,VALID,917.206,VALID,0.0,VALID,95.846,VALID,-0.039,VALID,19.307,VALID,139.0,VALID,0.0,
2018-10-25, 03:40:06,VALID,917.229,VALID,0.0,VALID,96.049,VALID,-0.032,VALID,19.318,VALID,143.0,VALID,0.0,
2018-10-25, 03:41:06,VALID,917.223,VALID,0.0,VALID,96.223,VALID,-0.027,VALID,19.328,VALID,129.0,VALID,0.0,
2018-10-25, 03:42:06,VALID,917.228,VALID,0.0,VALID,96.261,VALID,-0.017,VALID,19.312,VALID,122.0,VALID,0.0,